EW9119 Weather Reports


time (UTC)temp
F
wind
direction
speed
knots
gust
knots
rain 1hr
in
rain 24hr
in
rain mn
in
humidity
%
barometer
mb
20260906231502 77 144 0.0 0.0 0.00 0.00 0.00 70 1010.5
20260906230059 77 57 0.0 0.0 0.00 0.00 0.00 70 1010.3
20260906224559 77 256 0.0 0.0 0.00 0.00 0.00 70 1010.3
20260906223049 78 194 0.0 2.6 0.00 0.00 0.00 70 1010.1
20260906221556 79 76 0.0 6.1 0.00 0.00 0.00 69 1010.0
20260906220047 79 181 0.0 0.9 0.00 0.00 0.00 68 1010.3
20260906214550 79 198 0.0 8.7 0.00 0.00 0.00 68 1010.3
20260906213042 79 90 0.0 4.3 0.00 0.00 0.00 69 1010.2
20260906211538 80 107 0.0 0.0 0.00 0.00 0.00 69 1010.2
20260906210036 81 186 0.0 0.0 0.00 0.00 0.00 67 1009.9
20260906204529 82 32 0.0 0.0 0.00 0.00 0.00 64 1009.6
20260906203025 82 344 0.0 0.0 0.00 0.00 0.00 67 1009.6
20260906201520 82 290 0.0 0.0 0.00 0.00 0.00 65 1009.8
20260906200015 83 79 0.0 0.0 0.00 0.00 0.00 63 1009.7
20260906194516 82 189 0.0 0.0 0.00 0.00 0.00 65 1009.7
20260906193007 82 90 0.0 0.0 0.00 0.00 0.00 65 1010.0
20260906191504 82 213 0.0 0.0 0.00 0.00 0.00 64 1010.1
20260906190057 82 163 0.0 0.0 0.00 0.00 0.00 64 1010.3
20260906184557 81 282 0.0 0.0 0.00 0.02 0.00 66 1010.5
20260906183049 81 64 0.0 0.0 0.00 0.02 0.00 65 1010.8
20260906181558 81 117 0.0 0.0 0.00 0.02 0.00 66 1010.9
20260906180039 81 158 0.0 0.9 0.00 0.02 0.00 68 1011.1
20260906174536 83 164 0.0 0.0 0.00 0.02 0.00 65 1011.4
20260906173031 80 231 0.0 0.0 0.00 0.02 0.00 68 1011.3
20260906171532 80 232 0.0 0.0 0.00 0.02 0.00 68 1011.4
20260906170024 79 284 0.0 0.0 0.00 0.02 0.00 68 1011.8
20260906164519 81 263 0.0 1.7 0.00 0.02 0.00 67 1011.7
20260906163020 78 171 0.0 0.0 0.00 0.02 0.00 68 1011.7
20260906161510 78 181 0.0 1.7 0.00 0.02 0.00 67 1011.5
20260906160004 78 176 0.0 0.9 0.00 0.02 0.00 67 1011.6
20260906154600 79 153 0.0 2.6 0.00 0.02 0.00 65 1011.6
20260906153055 79 134 0.0 0.0 0.00 0.02 0.00 66 1011.9
20260906151552 77 313 0.0 0.0 0.00 0.02 0.00 58 1011.8
20260906150048 79 11 0.0 3.5 0.00 0.02 0.00 64 1011.8
20260906144541 76 338 0.0 0.0 0.00 0.02 0.00 47 1012.0
20260906143045 76 241 0.0 0.0 0.00 0.02 0.00 55 1012.0
20260906141533 75 132 0.0 0.0 0.00 0.02 0.00 47 1011.9
20260906140028 75 59 0.0 0.0 0.00 0.02 0.00 47 1011.8
20260906134523 75 119 0.0 0.0 0.00 0.02 0.00 25 1011.6
20260906133021 75 289 0.0 0.0 0.00 0.02 0.00 3 1011.4
20260906131516 73 5 0.0 0.0 0.00 0.02 0.00 1 1011.3
20260906130010 72 146 0.0 0.0 0.00 0.02 0.00 1 1011.5
20260906124507 72 79 0.0 0.0 0.00 0.02 0.00 1 1011.2
20260906123002 72 186 0.0 0.0 0.00 0.02 0.00 1 1011.4
20260906121611 72 136 0.0 0.0 0.00 0.02 0.00 1 1011.1
20260906120054 71 137 0.0 0.0 0.00 0.02 0.00 1 1011.0
20260906114600 71 132 0.0 0.0 0.00 0.02 0.00 1 1010.8
20260906113056 71 127 0.0 0.0 0.00 0.02 0.00 1 1010.9
20260906111541 71 125 0.0 0.0 0.00 0.02 0.00 1 1010.7
20260906110036 72 66 0.0 0.0 0.00 0.02 0.00 1 1010.5
20260906104532 72 131 0.0 0.0 0.00 0.02 0.00 1 1010.4
20260906103028 72 119 0.0 0.0 0.00 0.02 0.00 1 1010.4
20260906101523 72 158 0.0 0.0 0.00 0.02 0.00 1 1010.1
20260906100020 72 135 0.0 0.0 0.00 0.02 0.00 1 1010.0
20260906094518 71 135 0.0 0.0 0.00 0.02 0.00 1 1009.8
20260906093013 71 132 0.0 0.0 0.00 0.02 0.00 1 1009.8
20260906091516 71 130 0.0 0.0 0.00 0.02 0.00 1 1009.7
20260906090007 71 159 0.0 0.0 0.00 0.02 0.00 1 1009.4
20260906084503 71 267 0.0 0.0 0.00 0.02 0.00 1 1009.3
20260906083059 70 270 0.0 0.0 0.00 0.02 0.00 1 1009.2
20260906081559 69 273 0.0 0.0 0.00 0.02 0.00 1 1008.9
20260906080050 69 273 0.0 0.0 0.00 0.02 0.00 1 1009.0
20260906074546 69 273 0.0 0.0 0.00 0.02 0.00 1 1009.0
20260906073045 69 273 0.0 0.0 0.00 0.02 0.00 1 1009.0
20260906071536 69 273 0.0 0.0 0.00 0.02 0.00 1 1009.2
20260906070032 70 273 0.0 0.0 0.00 0.02 0.00 1 1009.2
20260906064529 70 273 0.0 0.0 0.00 0.02 0.00 1 1009.2
20260906063023 70 273 0.0 0.0 0.00 0.02 0.00 1 1009.3
20260906061520 70 273 0.0 0.0 0.00 0.02 0.00 1 1009.2
20260906060014 70 273 0.0 0.0 0.00 0.02 0.00 1 1009.2
20260906054510 70 273 0.0 0.0 0.00 0.02 0.00 1 1009.4
20260906053005 71 273 0.0 0.0 0.00 0.02 0.00 1 1009.3
20260906051502 71 273 0.0 0.0 0.00 0.02 0.00 1 1009.3
20260906050112 71 273 0.0 0.0 0.00 0.02 0.00 1 1009.5
20260906044554 72 273 0.0 0.0 0.00 0.02 0.00 1 1009.6
20260906043050 72 273 0.0 0.0 0.00 0.02 0.00 1 1009.7
20260906041547 72 273 0.0 0.0 0.00 0.02 0.00 1 1009.6
20260906040043 72 273 0.0 0.0 0.00 0.02 0.00 1 1009.6
20260906034540 73 273 0.0 0.0 0.00 0.03 0.02 1 1009.7
20260906033034 73 273 0.0 0.0 0.00 0.03 0.02 1 1009.7
20260906031551 73 273 0.0 0.0 0.00 0.03 0.02 3 1009.6
20260906030023 73 273 0.0 0.0 0.00 0.03 0.02 13 1009.7
20260906024520 73 304 0.0 0.0 0.00 0.03 0.02 27 1009.3
20260906023015 74 304 0.0 0.0 0.00 0.03 0.02 38 1009.1
20260906021511 74 304 0.0 0.0 0.00 0.03 0.02 44 1009.0
20260906020006 74 304 0.0 0.0 0.00 0.03 0.02 49 1008.9
20260906014507 75 304 0.0 0.0 0.00 0.03 0.02 55 1009.0
20260906013058 75 304 0.0 0.0 0.00 0.03 0.02 60 1008.8
20260906011601 76 304 0.0 0.0 0.00 0.03 0.02 63 1008.6
20260906010049 76 304 0.0 0.0 0.00 0.03 0.02 65 1008.5
20260906004551 77 304 0.0 0.0 0.00 0.03 0.02 68 1008.3
20260906003049 78 304 0.0 0.0 0.00 0.03 0.02 69 1008.1
20260906001544 79 304 0.0 0.0 0.00 0.03 0.02 69 1008.1
20260906000035 80 304 0.0 0.0 0.00 0.03 0.02 69 1008.0
20260905234533 81 304 0.0 0.0 0.00 0.03 0.02 68 1007.9
20260905233025 82 304 0.0 0.0 0.00 0.03 0.02 67 1007.8